2019-06-28T02:53:44+02:00 GET /?slug=halozat|biztonsagtechnika&p=28&add_diff=1378299 HTTP/1.1
2019-06-28T04:05:58+02:00 GET /?slug=szamitogep-tartozek|kabel&p=71&add_diff=1576528 HTTP/1.1
2019-06-28T05:16:37+02:00 GET /?slug=szamitogep-tartozek|kabel&p=51&add_diff=1577471 HTTP/1.1
2019-06-28T07:16:25+02:00 GET /?slug=halozat|biztonsagtechnika&p=12&add_diff=1560682 HTTP/1.1
2019-06-28T02:53:44+02:00 GET /?slug=halozat|biztonsagtechnika&p=28&add_diff=1378299 HTTP/1.1
2019-06-28T04:05:58+02:00 GET /?slug=szamitogep-tartozek|kabel&p=71&add_diff=1576528 HTTP/1.1
2019-06-28T05:16:37+02:00 GET /?slug=szamitogep-tartozek|kabel&p=51&add_diff=1577471 HTTP/1.1
2019-06-28T07:16:25+02:00 GET /?slug=halozat|biztonsagtechnika&p=12&add_diff=1560682 HTTP/1.1
2019-06-28T11:40:49+02:00 GET /shop/termek/epson-t839240-eredeti/1479328 HTTP/1.1
2019-06-28T11:58:54+02:00 GET /?slug=szamitogep-komponens|memoria&p=8&add_diff=634909 HTTP/1.1
2019-06-28T12:44:40+02:00 GET /shop/termek/zebra-zt42062t2e0000z/729793 HTTP/1.1
2019-06-28T19:07:05+02:00 GET /?slug=szerver|tartozekok&add_diff=789547&listlimit=30 HTTP/1.1
2019-06-28T20:59:41+02:00 GET /shop/termek/transcend-330-8gb-alb/207018 HTTP/1.1
2019-06-28T23:10:56+02:00 GET /?slug=haztartas|konyhai-kisgepek&p=26&add_diff=898131 HTTP/1.1
2019-06-28T23:58:10+02:00 GET /?slug=szamitogep-komponens|huto&p=16&add_diff=1309648 HTTP/1.1
2019-06-29T01:15:43+02:00 GET /shop/termek/ciesta-twisy-wristband-galben/1353942 HTTP/1.1
2019-06-29T01:56:00+02:00 GET /shop/termek/mykronoz-zewatch-4-hr-alb/1551330 HTTP/1.1
2019-06-29T05:53:48+02:00 GET /shop/termek/raidmax-monster-ii-alb/1543838 HTTP/1.1
2019-06-29T07:36:10+02:00 GET /webshop/product/phottix_speed_ring_for_profoto/575541 HTTP/1.1
2019-06-29T11:26:10+02:00 GET /webshop/product/_a_legszebb_bibliai_tortenetek/1608956 HTTP/1.1
2019-06-29T12:42:17+02:00 GET /?slug=halozat|biztonsagtechnika&p=28&add_diff=1554695 HTTP/1.1
2019-06-29T14:18:13+02:00 GET /webshop/tag/szamitogep-komponens/huto/p29?listorder=1 HTTP/1.1
2019-06-29T18:59:48+02:00 GET /?slug=autogumi-felni|szemelyauto&p=1&add_diff=1529369 HTTP/1.1
2019-06-29T19:56:24+02:00 GET /?slug=barkacs-vilagitas|led-izzo&p=6&add_diff=1595173 HTTP/1.1
2019-06-29T20:43:38+02:00 GET /?slug=halozat|vezetekes&listlimit=30&add_diff=568843 HTTP/1.1
2019-06-29T21:38:32+02:00 GET /?slug=szamitogep-tartozek|kabel&p=79&add_diff=1212459 HTTP/1.1
2019-06-29T22:12:54+02:00 GET /?slug=szamitogep-tartozek|kabel&p=193&add_diff=1566562 HTTP/1.1
2019-06-30T04:26:41+02:00 GET /shop/termek/blow-3d-glasses-vr-box/1534253 HTTP/1.1
2019-06-30T07:54:26+02:00 GET /?slug=szerver|tartozekok&listorder=2&add_diff=1550088 HTTP/1.1
2019-06-30T11:43:01+02:00 GET /webshop/tag/szamitogep-periferia/eger/p23?listorder=0 HTTP/1.1
2019-06-30T11:54:55+02:00 GET /shop/termek/jbl-clip-2-green/1583152 HTTP/1.1
2019-06-30T12:28:02+02:00 GET /?slug=halozat|biztonsagtechnika&p=24&add_diff=1573735 HTTP/1.1
2019-06-30T13:37:53+02:00 GET /shop/termek/chenbro-sr30169t3/1451642 HTTP/1.1
2019-06-30T13:44:36+02:00 GET /webshop/product/_dcr1403_s_b/1019930 HTTP/1.1
2019-06-30T17:23:39+02:00 GET /?slug=szamitogep-tartozek|kabel&p=204&add_diff=1605687 HTTP/1.1